Location: Lake Zurich
(42.1970°N, 88.0930°W)
Time: 15:29:57
(UTC-05:00)

Amateur Radio Satellites - All Passes

Search period start: 28 July 2014 14:59
Search period end: 29 July 2014 14:59
Location: Lake Zurich, 42.1970°N, 88.0930°W

Satellite Date Start Highest point End Downlink Frequencies (MHz)
Time Altitude Azimuth
Gurwin Techsat 1B 28 Jul 15:05:09 15:10:27 75° 257° (WSW) 15:15:47 435.225 FM
UOSAT-12 28 Jul 15:09:19 15:13:55 75° 305° (NW) 15:18:38 437.025 FM, 437.400 FM
Saudisat 1A 28 Jul 15:19:58 15:23:02 18° 41° (NE) 15:26:05 436.775 MHz
AO-Echo 28 Jul 15:42:01 15:45:00 15° 271° (W) 15:47:59 ?
AO-7 28 Jul 15:44:07 15:52:16 61° 66° (ENE) 16:00:27 29.400 - 29.500 MHz
KITSAT 1 28 Jul 15:51:57 16:00:04 83° 241° (WSW) 16:08:07 435.175 FM
Uosat F 28 Jul 15:57:20 16:02:17 60° 72° (ENE) 16:07:15 435.120 FM
TMSAT-1 28 Jul 16:22:40 16:26:38 21° 267° (W) 16:30:38 436.925 FM
JAS-1B 28 Jul 16:33:45 16:40:32 24° 274° (W) 16:47:53 435.800 - 435.900 CW/SSB
OPAL 28 Jul 16:46:31 16:51:28 51° 102° (ESE) 16:56:26 ?
UOSAT-12 28 Jul 16:52:27 16:54:54 14° 325° (NW) 16:57:23 437.025 FM, 437.400 FM
Saudisat 1A 28 Jul 16:58:40 17:03:04 66° 240° (WSW) 17:07:24 436.775 MHz
RS-15 28 Jul 17:02:40 17:11:36 27° 336° (NNW) 17:20:34 29.354 - 29.394 USB, Beacon 29.352 USB
Hamsat 28 Jul 17:06:31 17:09:34 20° 66° (ENE) 17:12:38 145.90 MHz
JAS-2 28 Jul 17:07:57 17:14:34 32° 64° (ENE) 17:20:49 435.800 - 435.900 CW/SSB, 435.910 FM
AO-7 28 Jul 17:38:16 17:45:27 31° 264° (W) 17:52:41 29.400 - 29.500 MHz
Uosat F 28 Jul 17:38:19 17:41:27 16° 269° (W) 17:44:36 435.120 FM
KITSAT 1 28 Jul 17:49:40 17:54:13 16° 260° (W) 17:58:47 435.175 FM
OPAL 28 Jul 18:26:13 18:30:00 22° 299° (WNW) 18:33:48 ?
Hamsat 28 Jul 18:41:28 18:45:18 35° 263° (W) 18:49:11 145.90 MHz
JAS-2 28 Jul 18:51:33 18:59:13 58° 260° (W) 19:06:28 435.800 - 435.900 CW/SSB, 435.910 FM
HO-68 28 Jul 18:58:20 19:01:33 14° 49° (NE) 19:04:46 435.675 MHz FM
STRAND 1 28 Jul 19:09:06 19:13:49 36° 97° (E) 19:18:28 ?
RS-15 28 Jul 19:20:46 19:29:01 23° 13° (NNE) 19:37:21 29.354 - 29.394 USB, Beacon 29.352 USB
SO-67 28 Jul 19:25:01 19:28:28 68° 259° (W) 19:31:57 435.3500 MHz FM
SO-50 28 Jul 19:56:51 19:59:46 16° 38° (NE) 20:02:43 436.795 FM
HO-68 28 Jul 20:40:51 20:47:55 65° 69° (ENE) 20:55:00 435.675 MHz FM
STRAND 1 28 Jul 20:48:33 20:52:51 28° 294° (WNW) 20:57:08 ?
UKube-1 28 Jul 20:54:11 20:58:21 45° 71° (ENE) 21:02:32 145.840 MHz, 145.915 MHz
RS-15 28 Jul 21:34:17 21:44:54 50° 44° (NE) 21:55:49 29.354 - 29.394 USB, Beacon 29.352 USB
SO-50 28 Jul 21:36:14 21:41:01 88° 57° (ENE) 21:45:50 436.795 FM
Oscar 11 28 Jul 21:39:35 21:43:51 69° 75° (ENE) 21:48:09 145.825 FM, Beacon 2401.500 USB
MaSat-1 28 Jul 21:41:00 21:45:03 88° 296° (WNW) 21:49:50 437.345 MHz
UOSAT-12 28 Jul 21:59:20 22:02:36 18° 39° (NE) 22:05:51 437.025 FM, 437.400 FM
FUNcube-1 28 Jul 22:00:31 22:04:35 42° 72° (ENE) 22:08:35 145.950 - 145.970 MHz USB
HO-68 28 Jul 22:30:31 22:36:07 24° 267° (W) 22:41:44 435.675 MHz FM
UKube-1 28 Jul 22:31:58 22:34:47 17° 267° (W) 22:37:36 145.840 MHz, 145.915 MHz
SO-50 28 Jul 23:19:30 23:20:53 11° 253° (WSW) 23:22:16 436.795 FM
Oscar 11 28 Jul 23:19:36 23:20:30 11° 271° (W) 23:21:24 145.825 FM, Beacon 2401.500 USB
MaSat-1 28 Jul 23:21:08 23:23:18 13° 318° (NW) 23:25:36 437.345 MHz
ISS 28 Jul 23:28:54 23:32:00 37° 138° (SE) 23:35:08 145.800 FM
FUNcube-1 28 Jul 23:38:18 23:41:10 17° 267° (W) 23:44:00 145.950 - 145.970 MHz USB
UOSAT-12 28 Jul 23:38:35 23:43:19 77° 239° (WSW) 23:47:59 437.025 FM, 437.400 FM
Sapphire 28 Jul 23:46:07 23:49:19 16° 104° (ESE) 23:52:32 437.095 MHz 1200 baud AX-25 AFSK
RS-15 28 Jul 23:46:50 23:57:25 54° 247° (WSW) 00:08:24 29.354 - 29.394 USB, Beacon 29.352 USB
PCSat 29 Jul 00:17:37 00:22:24 33° 110° (ESE) 00:27:13 145.825 MHz
ISS 29 Jul 01:05:39 01:08:44 33° 336° (NNW) 01:11:51 145.800 FM
Sapphire 29 Jul 01:26:43 01:32:06 72° 301° (WNW) 01:37:32 437.095 MHz 1200 baud AX-25 AFSK
AO-40 29 Jul 01:39:56 03:08:05 15° 117° (ESE) 04:03:08 Beacon 2401.320
Oscar 19 29 Jul 01:50:47 01:55:22 31° 96° (E) 01:59:57 437.125 CW, 437.150 USB
PCSat 29 Jul 02:00:44 02:05:44 37° 308° (NW) 02:10:47 145.825 MHz
AO-Echo 29 Jul 02:08:28 02:12:19 22° 92° (E) 02:16:04 ?
Oscar 16 29 Jul 02:18:48 02:23:56 60° 101° (E) 02:29:02 437.025 USB, Beacon 2401.1428
OPAL 29 Jul 02:26:41 02:28:55 13° 56° (ENE) 02:31:09 ?
JAS-1B 29 Jul 02:27:22 02:35:13 30° 89° (E) 02:42:07 435.800 - 435.900 CW/SSB
ITAMSAT 1 29 Jul 02:39:43 02:44:36 41° 98° (E) 02:49:27 435.822 SSB
Oscar 10/S400 29 Jul 02:43:26 03:36:02 58° 201° (SSW) 11:34:59 145.825 - 145.975 CW/USB, Beacon 145.810 USB
ISS 29 Jul 02:43:57 02:46:12 17° 356° (N) 02:48:27 145.800 FM
TMSAT-1 29 Jul 02:57:38 03:01:20 19° 92° (E) 03:05:00 436.925 FM
AO-27 29 Jul 02:58:46 03:03:56 63° 102° (ESE) 03:09:02 436.795 MHz FM
Uribyol 2 29 Jul 02:59:01 03:04:10 66° 102° (ESE) 03:09:17 436.500 FM
Sapphire 29 Jul 03:13:37 03:16:32 14° 322° (NW) 03:19:27 437.095 MHz 1200 baud AX-25 AFSK
Gurwin Techsat 1B 29 Jul 03:21:02 03:26:05 42° 98° (E) 03:31:05 435.225 FM
Oscar 19 29 Jul 03:30:06 03:34:40 33° 293° (WNW) 03:39:15 437.125 CW, 437.150 USB
AO-Echo 29 Jul 03:46:29 03:51:19 44° 290° (WNW) 03:55:58 ?
AO-7 29 Jul 03:47:00 03:52:05 17° 89° (E) 03:57:07 29.400 - 29.500 MHz
Oscar 16 29 Jul 03:59:20 04:02:48 19° 298° (WNW) 04:06:16 437.025 USB, Beacon 2401.1428
OPAL 29 Jul 04:02:09 04:07:06 85° 254° (WSW) 04:12:05 ?
Uosat F 29 Jul 04:05:45 04:09:03 17° 92° (E) 04:12:19 435.120 FM
JAS-1B 29 Jul 04:17:03 04:26:26 67° 291° (WNW) 04:34:27 435.800 - 435.900 CW/SSB
ITAMSAT 1 29 Jul 04:19:40 04:23:53 26° 295° (WNW) 04:28:05 435.822 SSB
ISS 29 Jul 04:21:06 04:23:48 22° 16° (NNE) 04:26:30 145.800 FM
KITSAT 1 29 Jul 04:31:32 04:34:11 12° 98° (E) 04:36:51 435.175 FM
TMSAT-1 29 Jul 04:36:25 04:41:36 55° 288° (WNW) 04:46:44 436.925 FM
AO-27 29 Jul 04:39:33 04:42:55 18° 299° (WNW) 04:46:17 436.795 MHz FM
Uribyol 2 29 Jul 04:39:53 04:43:06 17° 299° (WNW) 04:46:19 436.500 FM
Gurwin Techsat 1B 29 Jul 05:01:29 05:05:49 26° 295° (WNW) 05:10:07 435.225 FM
AO-7 29 Jul 05:37:35 05:45:58 86° 108° (ESE) 05:54:17 29.400 - 29.500 MHz
Uosat F 29 Jul 05:43:16 05:48:11 56° 288° (WNW) 05:53:03 435.120 FM
ISS 29 Jul 05:57:31 06:00:54 87° 35° (NE) 06:04:16 145.800 FM
MaSat-1 29 Jul 05:58:55 06:03:40 32° 53° (NE) 06:08:13 437.345 MHz
JAS-2 29 Jul 06:03:11 06:07:09 19° 88° (E) 06:10:52 435.800 - 435.900 CW/SSB, 435.910 FM
JAS-1B 29 Jul 06:09:23 06:14:57 18° 313° (NW) 06:20:12 435.800 - 435.900 CW/SSB
KITSAT 1 29 Jul 06:20:04 06:28:03 68° 116° (ESE) 06:36:05 435.175 FM
STRAND 1 29 Jul 06:25:23 06:30:24 56° 72° (ENE) 06:35:26 ?
Hamsat 29 Jul 06:26:21 06:30:21 37° 97° (E) 06:34:22 145.90 MHz
PANSAT 29 Jul 06:29:55 06:30:46 11° 179° (S) 06:31:37 not established
Saudisat 1A 29 Jul 07:06:01 07:09:46 28° 114° (ESE) 07:13:33 436.775 MHz
AO-7 29 Jul 07:31:37 07:37:47 24° 308° (NW) 07:43:55 29.400 - 29.500 MHz
ISS 29 Jul 07:35:57 07:37:09 12° 231° (SW) 07:38:20 145.800 FM
MaSat-1 29 Jul 07:36:11 07:41:05 39° 252° (WSW) 07:45:42 437.345 MHz
JAS-2 29 Jul 07:46:58 07:52:52 58° 289° (WNW) 07:58:09 435.800 - 435.900 CW/SSB, 435.910 FM
Hamsat 29 Jul 08:02:54 08:06:05 21° 293° (WNW) 08:09:17 145.90 MHz
STRAND 1 29 Jul 08:06:28 08:09:56 18° 268° (W) 08:13:24 ?
KITSAT 1 29 Jul 08:16:51 08:24:02 34° 318° (NW) 08:31:16 435.175 FM
SO-67 29 Jul 08:21:27 08:24:53 59° 285° (WNW) 08:28:18 435.3500 MHz FM
Sapphire 29 Jul 08:31:48 08:35:36 19° 42° (NE) 08:39:23 437.095 MHz 1200 baud AX-25 AFSK
Saudisat 1A 29 Jul 08:45:13 08:49:15 34° 312° (NW) 08:53:19 436.775 MHz
PCSat 29 Jul 09:04:38 09:09:30 32° 50° (NE) 09:14:21 145.825 MHz
Oscar 11 29 Jul 09:28:47 09:30:29 12° 90° (E) 09:32:12 145.825 FM, Beacon 2401.500 USB
HO-68 29 Jul 09:55:27 10:02:34 65° 103° (ESE) 10:09:37 435.675 MHz FM
Sapphire 29 Jul 10:14:15 10:19:42 82° 242° (WSW) 10:25:07 437.095 MHz 1200 baud AX-25 AFSK
UKube-1 29 Jul 10:17:52 10:22:15 80° 103° (ESE) 10:26:35 145.840 MHz, 145.915 MHz
KITSAT 1 29 Jul 10:18:40 10:22:27 14° 346° (NNW) 10:26:15 435.175 FM
PCSat 29 Jul 10:47:57 10:52:59 40° 248° (WSW) 10:58:00 145.825 MHz
Oscar 11 29 Jul 11:02:47 11:07:04 61° 286° (WNW) 11:11:21 145.825 FM, Beacon 2401.500 USB
FUNcube-1 29 Jul 11:25:05 11:29:17 86° 103° (ESE) 11:33:30 145.950 - 145.970 MHz USB
HO-68 29 Jul 11:44:01 11:49:44 27° 302° (WNW) 11:55:26 435.675 MHz FM
SO-50 29 Jul 11:52:36 11:56:12 25° 113° (ESE) 11:59:52 436.795 FM
UKube-1 29 Jul 11:56:43 11:57:48 11° 300° (WNW) 11:58:53 145.840 MHz, 145.915 MHz
Oscar 16 29 Jul 12:00:46 12:02:50 13° 58° (ENE) 12:04:55 437.025 USB, Beacon 2401.1428
Sapphire 29 Jul 12:01:19 12:02:12 10° 259° (W) 12:03:05 437.095 MHz 1200 baud AX-25 AFSK
RS-15 29 Jul 12:01:34 12:09:48 25° 102° (ESE) 12:17:51 29.354 - 29.394 USB, Beacon 29.352 USB
KITSAT 1 29 Jul 12:17:59 12:22:07 14° 17° (NNE) 12:26:15 435.175 FM
Uribyol 2 29 Jul 12:41:04 12:43:49 15° 59° (ENE) 12:46:33 436.500 FM
AO-27 29 Jul 12:41:10 12:43:49 14° 59° (ENE) 12:46:27 436.795 MHz FM
Oscar 19 29 Jul 13:08:07 13:12:59 48° 70° (ENE) 13:17:54 437.125 CW, 437.150 USB
JAS-1B 29 Jul 13:10:56 13:18:33 31° 56° (NE) 13:26:39 435.800 - 435.900 CW/SSB
AO-Echo 29 Jul 13:21:15 13:25:54 32° 67° (ENE) 13:30:33 ?
SO-50 29 Jul 13:32:21 13:36:33 39° 311° (NW) 13:40:52 436.795 FM
Oscar 16 29 Jul 13:36:18 13:41:26 90° 260° (W) 13:46:35 437.025 USB, Beacon 2401.1428
UOSAT-12 29 Jul 13:50:42 13:54:37 28° 113° (ESE) 13:58:36 437.025 FM, 437.400 FM
ITAMSAT 1 29 Jul 13:58:06 14:03:16 66° 73° (ENE) 14:08:27 435.822 SSB
RS-15 29 Jul 14:09:35 14:20:45 86° 303° (WNW) 14:31:44 29.354 - 29.394 USB, Beacon 29.352 USB
KITSAT 1 29 Jul 14:12:53 14:20:18 38° 45° (NE) 14:27:40 435.175 FM
AO-27 29 Jul 14:17:24 14:22:37 82° 256° (WSW) 14:27:53 436.795 MHz FM
Uribyol 2 29 Jul 14:17:25 14:22:37 79° 257° (WSW) 14:27:50 436.500 FM
TMSAT-1 29 Jul 14:18:38 14:23:15 32° 67° (ENE) 14:27:54 436.925 FM
Gurwin Techsat 1B 29 Jul 14:42:33 14:47:50 70° 73° (ENE) 14:53:08 435.225 FM
AO-7 29 Jul 14:46:15 14:53:03 29° 55° (NE) 14:59:50 29.400 - 29.500 MHz
Oscar 19 29 Jul 14:48:47 14:52:35 21° 267° (W) 14:56:24 437.125 CW, 437.150 USB
